EUTELSAT 3B

Last updated on Sun Aug 31 2025 00:02:48 GMT+0000 (Coordinated Universal Time)

1 39773U 14030A 25242.09861390 .00000024 00000+0 00000+0 0 9992 2 39773 0.0657 6.7769 0004250 150.1075 220.2416 1.00272841 41146
UTC large
Height (km)
Speed (km/s)
/
Latitude / Longitude
Inclination (degrees)
Orbital Period (minutes)
Azimuth
Elevation
Range (km)
Doppler Factor

Next 0 passes for location: London (51.5072 / 0.1276)

Sorry there are no passes over London.